Togiak, AK

8:49 PM AKDT on April 22, 2018 (GMT -0800)
Togiak

Weather History for PATG - October, 2013

Change the Weather History Date:

Sunday, October 6, 2013

  Actual Average Record
Temperature  
Mean Temperature 40 °F -  
Max Temperature 44 °F 42 °F 54 °F (2016)
Min Temperature 37 °F 30 °F 19 °F (2014)
Degree Days  
Heating Degree Days 24    
Moisture  
Dew Point 41 °F    
Average Humidity 91    
Maximum Humidity 93    
Minimum Humidity 81    
Precipitation  
Precipitation 0.06 in - - ()
Sea Level Pressure  
Sea Level Pressure 29.66 in    
Wind  
Wind Speed 10 mph (SSW)    
Max Wind Speed 23 mph    
Max Gust Speed -    
Visibility 7 miles    
Events      
Averages and records for this station are not official NWS values.
T = Trace of Precipitation, MM = Missing Value Source: NWS Daily Summary

Daily Weather History Graph

Daily Weather History Graph

Search for Another Location

Airport or City:

Astronomy

Oct. 06, 2013 Rise Set
Actual Time 8:59 AM AKDT 7:58 PM AKDT
Civil Twilight 8:18 AM AKDT 8:39 PM AKDT
Nautical Twilight 7:31 AM AKDT 9:25 PM AKDT
Astronomical Twilight 6:43 AM AKDT 10:14 PM AKDT
Moon 11:32 AM AKDT (10/6) 8:27 PM AKDT (10/6)
Length of Visible Light 12h 20m
Length of Day
10h 59m
Waxing Crescent, 4% of the Moon is Illuminated
Oct 6
Waxing Crescent
Oct 11
First Quarter
Oct 18
Full
Oct 26
Last Quarter
Nov 3
New

Hourly Weather History & Observations

Time (AKDT) Temp. Windchill Dew Point Humidity Pressure Visibility Wind Dir Wind Speed Gust Speed Precip Events Conditions
12:16 AM 39.2 °F - 37.4 °F 93% 29.61 in 10.0 mi Calm Calm - N/A   Overcast
12:36 AM 37.4 °F - 35.6 °F 93% 29.62 in 9.0 mi Calm Calm - N/A   Overcast
12:56 AM 41.0 °F 36.4 °F 39.2 °F 93% 29.63 in 10.0 mi SW 6.9 mph - N/A   Overcast
1:16 AM 42.8 °F 38.0 °F 39.2 °F 87% 29.63 in 9.0 mi WSW 8.1 mph - N/A   Mostly Cloudy
1:36 AM 39.2 °F 35.9 °F 37.4 °F 93% 29.64 in 7.0 mi WSW 4.6 mph - N/A   Partly Cloudy
1:56 AM 41.0 °F 39.0 °F 39.2 °F 93% 29.64 in 9.0 mi North 3.5 mph - N/A   Partly Cloudy
2:16 AM 42.8 °F - 39.2 °F 87% 29.65 in 10.0 mi Calm Calm - N/A   Clear
2:36 AM 41.0 °F 36.4 °F 37.4 °F 87% 29.66 in 10.0 mi SW 6.9 mph - N/A   Mostly Cloudy
2:56 AM 41.0 °F 36.4 °F 39.2 °F 93% 29.67 in 9.0 mi SW 6.9 mph - N/A   Overcast
3:16 AM 41.0 °F 34.7 °F 39.2 °F 93% 29.67 in 8.0 mi SW 10.4 mph - N/A   Mostly Cloudy
3:36 AM 42.8 °F 39.3 °F 39.2 °F 87% 29.68 in 9.0 mi SSW 5.8 mph - N/A   Mostly Cloudy
3:56 AM 42.8 °F 37.5 °F 39.2 °F 87% 29.68 in 10.0 mi South 9.2 mph - N/A   Mostly Cloudy
4:16 AM 42.8 °F 38.0 °F 39.2 °F 87% 29.69 in 9.0 mi SSE 8.1 mph - N/A   Mostly Cloudy
4:36 AM 42.8 °F 37.0 °F 39.2 °F 87% 29.69 in 8.0 mi SW 10.4 mph - N/A   Scattered Clouds
4:56 AM 42.8 °F 37.5 °F 39.2 °F 87% 29.69 in 9.0 mi SW 9.2 mph - N/A   Scattered Clouds
5:16 AM 42.8 °F 40.1 °F 39.2 °F 87% 29.69 in 9.0 mi SW 4.6 mph - N/A   Overcast
5:36 AM 42.8 °F 40.1 °F 39.2 °F 87% 29.69 in 9.0 mi SSW 4.6 mph - N/A   Mostly Cloudy
5:56 AM 41.0 °F - 39.2 °F 93% 29.69 in 8.0 mi Calm Calm - N/A   Overcast
6:16 AM 42.8 °F 41.1 °F 39.2 °F 87% 29.69 in 6.0 mi SSW 3.5 mph - N/A   Mostly Cloudy
6:36 AM 42.8 °F 37.5 °F 39.2 °F 87% 29.68 in 7.0 mi SSW 9.2 mph - N/A   Overcast
6:56 AM 42.8 °F 36.6 °F 41.0 °F 93% 29.68 in 7.0 mi South 11.5 mph - N/A   Overcast
7:16 AM 42.8 °F 33.5 °F 39.2 °F 87% 29.68 in 8.0 mi SW 23.0 mph - N/A   Overcast
7:36 AM 41.0 °F 32.5 °F 39.2 °F 93% 29.69 in 7.0 mi SSW 17.3 mph - N/A   Overcast
7:56 AM 41.0 °F 34.7 °F 37.4 °F 87% 29.68 in 10.0 mi SSW 10.4 mph - N/A   Mostly Cloudy
8:16 AM 41.0 °F 34.3 °F 39.2 °F 93% 29.69 in 10.0 mi WSW 11.5 mph - N/A   Overcast
8:36 AM 41.0 °F 36.4 °F 37.4 °F 87% 29.69 in 10.0 mi South 6.9 mph - N/A   Overcast
8:56 AM 41.0 °F 34.7 °F 39.2 °F 93% 29.69 in 10.0 mi South 10.4 mph - N/A   Overcast
9:16 AM 42.8 °F 36.6 °F 37.4 °F 81% 29.69 in 10.0 mi South 11.5 mph - N/A   Overcast
9:36 AM 42.8 °F 37.0 °F 39.2 °F 87% 29.68 in 10.0 mi South 10.4 mph - N/A   Overcast
9:56 AM 42.8 °F 36.2 °F 39.2 °F 87% 29.67 in 10.0 mi South 12.7 mph - N/A   Mostly Cloudy
10:16 AM 42.8 °F 35.8 °F 39.2 °F 87% 29.68 in 10.0 mi South 13.8 mph - N/A   Overcast
10:36 AM 42.8 °F 35.1 °F 39.2 °F 87% 29.67 in 9.0 mi SSW 16.1 mph - N/A   Overcast
10:56 AM 42.8 °F 35.4 °F 39.2 °F 87% 29.67 in 10.0 mi SSW 15.0 mph - N/A   Overcast
11:16 AM 42.8 °F 36.6 °F 39.2 °F 87% 29.67 in 10.0 mi SSW 11.5 mph - N/A   Overcast
11:36 AM 42.8 °F 34.3 °F 41.0 °F 93% 29.67 in 5.0 mi South 19.6 mph - N/A   Overcast
11:56 AM 42.8 °F 34.8 °F 41.0 °F 93% 29.66 in 5.0 mi South 17.3 mph - N/A   Overcast
12:16 PM 44.6 °F 36.4 °F 42.8 °F 93% 29.66 in 4.0 mi South 20.7 mph - 0.01 in   Overcast
12:36 PM 44.6 °F 36.1 °F 42.8 °F 93% 29.66 in 3.0 mi South 21.9 mph - 0.01 in   Overcast
12:56 PM 44.6 °F 36.6 °F 42.8 °F 93% 29.66 in 3.0 mi South 19.6 mph - 0.01 in   Overcast
1:16 PM 44.6 °F 37.2 °F 42.8 °F 93% 29.65 in 5.0 mi South 17.3 mph - N/A   Overcast
1:36 PM 44.6 °F 36.9 °F 42.8 °F 93% 29.65 in 2.5 mi SSW 18.4 mph - 0.01 in   Overcast
1:56 PM 44.6 °F 37.4 °F 42.8 °F 93% 29.66 in 5.0 mi South 16.1 mph - 0.01 in   Overcast
2:16 PM 44.6 °F 37.4 °F 42.8 °F 93% 29.66 in 5.0 mi SSW 16.1 mph - N/A   Overcast
2:36 PM 44.6 °F 37.2 °F 42.8 °F 93% 29.66 in 2.0 mi SSW 17.3 mph - N/A   Overcast
2:56 PM 44.6 °F 38.1 °F 42.8 °F 93% 29.65 in 2.5 mi SSW 13.8 mph - N/A   Overcast
3:16 PM 44.6 °F 38.1 °F 42.8 °F 93% 29.65 in 4.0 mi South 13.8 mph - 0.01 in   Overcast
3:36 PM 44.6 °F 37.8 °F 42.8 °F 93% 29.65 in 5.0 mi SSW 15.0 mph - 0.01 in   Overcast
3:56 PM 44.6 °F 37.2 °F 42.8 °F 93% 29.65 in 5.0 mi SSW 17.3 mph - 0.01 in   Overcast
4:16 PM 44.6 °F 37.4 °F 42.8 °F 93% 29.65 in 4.0 mi SSW 16.1 mph - N/A   Overcast
4:36 PM 44.6 °F 37.2 °F 42.8 °F 93% 29.65 in 5.0 mi SSW 17.3 mph - N/A   Overcast
4:56 PM 44.6 °F 36.9 °F 42.8 °F 93% 29.65 in 5.0 mi SSW 18.4 mph - 0.01 in   Mostly Cloudy
5:16 PM 44.6 °F 36.6 °F 42.8 °F 93% 29.65 in 5.0 mi SSW 19.6 mph - 0.01 in   Overcast
5:36 PM 44.6 °F 36.9 °F 42.8 °F 93% 29.64 in 7.0 mi South 18.4 mph - 0.01 in   Overcast
5:56 PM 44.6 °F 36.6 °F 42.8 °F 93% 29.64 in 10.0 mi South 19.6 mph - 0.01 in   Overcast
6:16 PM 44.6 °F 36.9 °F 42.8 °F 93% 29.63 in 8.0 mi South 18.4 mph - N/A   Overcast
6:36 PM 44.6 °F 36.6 °F 42.8 °F 93% 29.63 in 6.0 mi South 19.6 mph - N/A   Overcast
6:56 PM 44.6 °F 36.6 °F 42.8 °F 93% 29.63 in 4.0 mi South 19.6 mph - 0.01 in   Overcast
7:16 PM 44.6 °F 36.6 °F 42.8 °F 93% 29.62 in 4.0 mi South 19.6 mph - N/A   Overcast
7:36 PM 44.6 °F 36.6 °F 42.8 °F 93% 29.62 in 3.0 mi South 19.6 mph - N/A   Overcast
7:56 PM 44.6 °F 36.9 °F 42.8 °F 93% 29.62 in 5.0 mi South 18.4 mph - N/A   Overcast
8:16 PM 44.6 °F 37.2 °F 42.8 °F 93% 29.62 in 2.5 mi SSW 17.3 mph - N/A   Overcast
8:36 PM 44.6 °F 36.9 °F 42.8 °F 93% 29.62 in 4.0 mi SSW 18.4 mph - N/A   Overcast
8:56 PM 44.6 °F 37.4 °F 42.8 °F 93% 29.63 in 3.0 mi SW 16.1 mph - N/A   Overcast
9:16 PM 44.6 °F 37.8 °F 42.8 °F 93% 29.64 in 3.0 mi SW 15.0 mph - N/A   Overcast
9:36 PM 44.6 °F 38.4 °F 42.8 °F 93% 29.65 in 4.0 mi SW 12.7 mph - N/A   Overcast
9:56 PM 44.6 °F 39.7 °F 42.8 °F 93% 29.65 in 4.0 mi SW 9.2 mph - N/A   Overcast
10:16 PM 44.6 °F 38.8 °F 42.8 °F 93% 29.67 in 8.0 mi SSW 11.5 mph - N/A   Overcast
10:36 PM 44.6 °F 38.4 °F 42.8 °F 93% 29.66 in 5.0 mi SW 12.7 mph - N/A   Overcast
10:56 PM 44.6 °F 38.8 °F 42.8 °F 93% 29.67 in 10.0 mi SW 11.5 mph - N/A   Overcast
11:16 PM 44.6 °F 39.2 °F 42.8 °F 93% 29.68 in 10.0 mi SSW 10.4 mph - N/A   Overcast
11:36 PM 44.6 °F 38.4 °F 42.8 °F 93% 29.68 in 10.0 mi SW 12.7 mph - N/A   Overcast
11:56 PM 42.8 °F 37.5 °F 41.0 °F 93% 29.69 in 10.0 mi WSW 9.2 mph - N/A   Mostly Cloudy